TimeCST,TemperatureF,Dew PointF,Humidity,Sea Level PressureIn,VisibilityMPH,Wind Direction,Wind SpeedMPH,Gust SpeedMPH,PrecipitationIn,Events,Conditions,WindDirDegrees,DateUTC
12:07 AM,59.0,57.2,94,29.89,2.0,East,6.9,-,0.19,Rain-Thunderstorm,Heavy Thunderstorms and Rain,100,2013-02-25 06:07:00
12:35 AM,59.0,57.2,94,29.86,3.0,East,8.1,-,0.54,Rain-Thunderstorm,Heavy Thunderstorms and Rain,80,2013-02-25 06:35:00
12:53 AM,59.0,57.9,96,29.85,4.0,NE,6.9,-,0.65,Rain-Thunderstorm,Rain,50,2013-02-25 06:53:00
1:03 AM,59.0,57.2,94,29.83,7.0,NE,4.6,-,0.01,Rain,Light Rain,40,2013-02-25 07:03:00
1:15 AM,59.0,57.2,94,29.82,8.0,ENE,5.8,-,0.01,Rain,Light Rain,70,2013-02-25 07:15:00
1:53 AM,59.0,57.9,96,29.81,10.0,ENE,5.8,-,0.01,Rain-Thunderstorm,Light Rain,60,2013-02-25 07:53:00
2:13 AM,59.0,57.2,94,29.81,5.0,East,6.9,-,0.03,Rain,Rain,100,2013-02-25 08:13:00
2:35 AM,60.8,57.2,88,29.77,8.0,NE,8.1,-,0.06,Rain-Thunderstorm,Light Rain,50,2013-02-25 08:35:00
2:53 AM,60.1,57.9,93,29.79,10.0,East,10.4,-,0.07,Rain-Thunderstorm,Light Thunderstorms and Rain,100,2013-02-25 08:53:00
3:06 AM,60.8,59.0,94,29.77,6.0,East,6.9,-,0.01,Rain-Thunderstorm,Thunderstorms and Rain,80,2013-02-25 09:06:00
3:15 AM,60.8,59.0,94,29.78,6.0,East,9.2,-,0.03,Rain,Light Rain,100,2013-02-25 09:15:00
3:24 AM,60.8,59.0,94,29.78,8.0,ESE,6.9,-,0.03,Rain-Thunderstorm,Light Thunderstorms and Rain,110,2013-02-25 09:24:00
3:53 AM,62.1,60.1,93,29.77,6.0,East,9.2,-,0.08,Rain-Thunderstorm,Light Rain,90,2013-02-25 09:53:00
4:02 AM,62.6,60.8,94,29.76,7.0,East,9.2,-,0.01,Rain-Thunderstorm,Rain,90,2013-02-25 10:02:00
4:42 AM,62.6,60.8,94,29.75,4.0,NNE,8.1,-,0.15,Rain-Thunderstorm,Heavy Thunderstorms and Rain,20,2013-02-25 10:42:00
4:53 AM,61.0,59.0,93,29.73,2.5,NNE,13.8,19.6,0.28,Rain-Thunderstorm,Heavy Thunderstorms and Rain,20,2013-02-25 10:53:00
5:14 AM,60.8,59.0,94,29.76,1.8,East,17.3,20.7,0.36,Rain-Thunderstorm,Heavy Thunderstorms and Rain,100,2013-02-25 11:14:00
5:19 AM,60.8,59.0,94,29.74,2.0,NE,12.7,20.7,0.48,Rain,Heavy Rain,50,2013-02-25 11:19:00
5:25 AM,60.8,59.0,94,29.78,3.0,North,9.2,20.7,0.51,Rain,Rain,10,2013-02-25 11:25:00
5:33 AM,60.8,59.0,94,29.79,6.0,NNE,5.8,-,0.51,Rain,Light Rain,20,2013-02-25 11:33:00
5:53 AM,61.0,59.0,93,29.82,3.0,NNW,5.8,-,0.63,Rain,Rain,340,2013-02-25 11:53:00
6:53 AM,60.1,57.9,93,29.80,10.0,NNE,10.4,17.3,0.24,Rain,Light Rain,20,2013-02-25 12:53:00
7:53 AM,61.0,57.9,90,29.83,10.0,NE,9.2,18.4,0.13,Rain-Thunderstorm,Light Thunderstorms and Rain,50,2013-02-25 13:53:00
8:53 AM,61.0,59.0,93,29.81,5.0,ENE,12.7,21.9,0.02,Rain,Rain,70,2013-02-25 14:53:00
9:53 AM,62.1,59.0,90,29.82,7.0,Variable,3.5,-,0.06,Rain,Light Rain,0,2013-02-25 15:53:00
10:53 AM,63.0,59.0,87,29.79,10.0,East,13.8,24.2,0.04,,Overcast,100,2013-02-25 16:53:00
11:53 AM,64.4,59.0,83,29.77,10.0,East,9.2,19.6,N/A,,Overcast,90,2013-02-25 17:53:00
12:53 PM,66.9,59.0,76,29.73,10.0,East,10.4,-,N/A,,Overcast,100,2013-02-25 18:53:00
1:53 PM,68.0,59.0,73,29.71,10.0,ESE,16.1,-,N/A,,Scattered Clouds,120,2013-02-25 19:53:00
2:53 PM,64.0,57.9,80,29.70,10.0,ESE,13.8,-,N/A,,Mostly Cloudy,110,2013-02-25 20:53:00
3:53 PM,63.0,59.0,87,29.69,10.0,ESE,13.8,24.2,0.00,,Overcast,120,2013-02-25 21:53:00
4:31 PM,62.6,60.8,94,29.67,6.0,ESE,16.1,20.7,0.01,Rain-Thunderstorm,Light Thunderstorms and Rain,110,2013-02-25 22:31:00
4:51 PM,62.6,60.8,94,29.66,2.0,ESE,13.8,21.9,0.03,Rain-Thunderstorm,Heavy Thunderstorms and Rain,110,2013-02-25 22:51:00
4:53 PM,62.1,60.1,93,29.67,2.0,East,12.7,21.9,0.05,Rain-Thunderstorm,Heavy Thunderstorms and Rain,100,2013-02-25 22:53:00
5:33 PM,62.6,60.8,94,29.63,5.0,East,13.8,-,0.06,,Overcast,90,2013-02-25 23:33:00
5:43 PM,62.6,60.8,94,29.62,5.0,East,11.5,20.7,0.06,Rain,Light Rain,90,2013-02-25 23:43:00
5:53 PM,62.1,60.1,93,29.63,5.0,East,10.4,20.7,0.08,Rain,Light Rain,90,2013-02-25 23:53:00
6:53 PM,63.0,61.0,93,29.61,10.0,ESE,18.4,24.2,0.00,,Overcast,120,2013-02-26 00:53:00
7:00 PM,62.6,60.8,94,29.61,10.0,ESE,18.4,24.2,N/A,,Overcast,120,2013-02-26 01:00:00
7:28 PM,62.6,60.8,94,29.62,7.0,SE,15.0,19.6,0.06,Rain-Thunderstorm,Light Thunderstorms and Rain,130,2013-02-26 01:28:00
7:48 PM,62.6,60.8,94,29.62,10.0,SE,15.0,24.2,0.06,,Overcast,130,2013-02-26 01:48:00
7:53 PM,63.0,61.0,93,29.62,10.0,ESE,17.3,-,0.06,Rain,Light Rain,120,2013-02-26 01:53:00
8:29 PM,64.4,62.6,94,29.62,10.0,SE,16.1,-,0.00,,Overcast,130,2013-02-26 02:29:00
8:53 PM,64.0,62.1,93,29.61,7.0,SE,19.6,-,0.02,Rain,Light Rain,130,2013-02-26 02:53:00
9:53 PM,66.0,63.0,90,29.62,4.0,SSE,17.3,23.0,0.06,Rain,Heavy Rain,150,2013-02-26 03:53:00
10:49 PM,66.2,64.4,94,29.58,1.8,SE,17.3,23.0,0.32,Rain,Heavy Rain,140,2013-02-26 04:49:00
10:53 PM,66.0,64.0,93,29.57,1.5,SE,12.7,23.0,0.45,Rain-Thunderstorm,Heavy Rain,140,2013-02-26 04:53:00
10:58 PM,66.2,64.4,94,29.56,2.0,SE,15.0,-,0.07,Rain-Thunderstorm,Heavy Rain,140,2013-02-26 04:58:00
11:10 PM,66.2,64.4,94,29.56,3.0,SE,12.7,21.9,0.19,Rain,Heavy Rain,140,2013-02-26 05:10:00
11:22 PM,66.2,64.4,94,29.55,2.5,SE,13.8,24.2,0.29,Rain,Heavy Rain,140,2013-02-26 05:22:00
11:53 PM,66.0,64.9,96,29.55,1.8,SSE,15.0,-,0.64,Rain,Heavy Rain,150,2013-02-26 05:53:00